Location: Alfords
(31.4624°N, 83.9238°W)
Time: 21:12:33
(UTC+00:00)

N. Korean satellite - Pass Details

Date: 24 September 2021
Orbit: 450 x 495 km, 97.3° (Epoch: 25 October)

Event Time Altitude Azimuth Distance (km) Brightness Sun altitude
Rises 10:19:30 0° 22° (NNE) 2,529 10.6 -14.8°
Reaches altitude 10° 10:21:40 10° 31° (NNE) 1,655 9.8 -14.4°
Maximum altitude 10:24:56 34° 98° (E) 810 8.4 -13.7°
Drops below altitude 10° 10:28:14 10° 165° (SSE) 1,666 9.4 -13.0°
Sets 10:30:26 0° 175° (S) 2,549 10.2 -12.5°
